User: anonymous   Login
Location: Ciserano
(45.5833°N, 9.6000°E)
Time: 20:26:03
(UTC+00:00)
Language:

SJ 16-02 - Orbit

View from above orbital plane
View from above orbital plane
View from above satellite
View from above satellite

Ground track
Ground track

The orbit data is extracted from the following two-line orbital elements,

1 41634U 16043A   21127.23538187  .00000167  00000-0  22402-4 0  9990
2 41634  75.0044 187.2736 0008784 240.8457 119.1840 14.85798367263329
Epoch (UTC): 07 May 2021 05:38:56
Eccentricity: 0.0008784
inclination: 75.0044°
perigee height: 605 km
apogee height: 617 km
right ascension of ascending node: 187.2736°
argument of perigee: 240.8457°
revolutions per day: 14.85798367
mean anomaly at epoch: 119.1840°
orbit number at epoch: 26332

The dashed part of the orbit path shows where the satellite is in the earth's shadow,  

DLR